COSMOS 2179 (GLONASS)

Satellite information

Favourite Embed

Satellite Type and Status

PAYLOADIN ORBIT

Key statistics

Satellite COSMOS 2179 (GLONASS) at a glance.

Uptime

12324

Days in orbit

Revolutions

≈ 2.1

Per day

Orbit

MEO

Medium Earth Orbit

Inclination

64.7

Latest

Satellite identification and parameters

Extended collection of information and parameters for COSMOS 2179 (GLONASS).

Object identification

Identified? True

Debris? False

Object name: COSMOS 2179 (GLONASS)

International designator: 1992-005C

Object number (NORAD): 21855

Object ID (CCSDS): 21855

Country: COMMONWEALTH OF INDEPENDENT STATES (CIS)

Current information (Y/N): Y

RCS size: LARGE

Orbital parameters

Period: 675.731 minutes

Inclination: 64.7496 deg

SMA: 25507.983 km

Apoapsis: 19163.001 km

Periapsis: 19096.695 km

RAAN: 78.2076 deg

Eccentricy: 0.00129971

Argument of periapsis: 243.8937 deg

Mean anomaly: 157.9907 deg

Mean motion: 2.13102523 rev/day

Mean motion (dot): -0.00000006 rev/day2

B* drag term: 0.0 1/REarth

Two-line elements (TLE)

Creation date: Oct. 22, 2025, 5:40 p.m.

Reference frame: TEME

Reference center: EARTH

Epoch: Oct. 21, 2025, 11:58 p.m. UTC

TLE line 0: 0 COSMOS 2179 (GLONASS)

TLE line 1: 1 21855U 92005C 25294.99877115 -.00000006 00000-0 00000-0 0 9993

TLE line 2: 2 21855 64.7496 78.2076 0012997 243.8937 157.9907 2.13102523262279

Live tracking on map

Real-time ground track for satellite COSMOS 2179 (GLONASS).

In-orbit conjunctions

A list of the most updated potential collisions computed for object COSMOS 2179 (GLONASS).

Target Orbit TCA Probability of collision Miss distance Type
SL-12 R/B(2) MEO 2025-01-25 10:00:51 TBA 2031.0 (m) ROCKET BODY
ATLAS 75E DEB HEO 2024-10-15 02:55:29 TBA 3658.0 (m) DEBRIS

Associated space launch

GLONASS navigation satellites

COSMOS 2179 (GLONASS) was lifted into orbit during the mission ‘Proton | Uragan 45 to 47’, on board a Proton space rocket.

The launch took place on Jan. 29, 1992, 10:19 p.m. from 81/23 (81L).

For more information about the launch, click the button.

Launch to space Proton | Uragan 45 to 47
Proton | Uragan 45 to 47

Agency: N/A

Status: Launch Successful

Launch date: Jan. 29, 1992, 10:19 p.m. UTC

Rocket: Proton

Launch pad: 81/23 (81L)

Location: Baikonur Cosmodrome, Republic of Kazakhstan

...

Latest news about this satellite

There are no fresh news available about this satellite. Check back as we update our databases every day.


Newsletter sign-up

Weekly statistics, charts and insights to help you stay on top of the space industry.